Location: Newark
(42.8481°N, 0.4872°E)
Time: 09:24:36
(UTC+00:00)

Vanguard 3 - Pass Details

Date: 02 November 2020
Orbit: 508 x 3262 km, 33.3° (Epoch: 27 November)

Event Time Altitude Azimuth Distance (km) Brightness Sun altitude
Rises 05:05:10 0° 245° (WSW) 5,818 - -16.7°
Exits shadow 05:08:14 - 242° (WSW) 5,178 10.7 -16.1°
Reaches altitude 10° 05:08:34 10° 242° (WSW) 5,112 10.7 -16.1°
Maximum altitude 05:24:31 60° 168° (SSE) 3,454 10.4 -13.2°
Drops below altitude 10° 05:43:47 10° 96° (E) 6,043 13.2 -9.7°
Sets 05:48:14 0° 93° (E) 6,889 14.0 -8.9°
